GW3555 Weather Reports


time (UTC)temp
C
wind
direction
speed
KPH
gust
KPH
rain 1hr
cm
rain 24hr
cm
rain mn
cm
humidity
%
barometer
mb
20260504173541 25 79 1.6 6.4 0.00 0.00 0.00 24 1011.4
20260504173128 25 284 1.6 9.7 0.00 0.00 0.00 24 1011.5
20260504172537 25 343 1.6 9.7 0.00 0.00 0.00 25 1011.5
20260504172036 25 317 1.6 9.7 0.00 0.00 0.00 25 1011.5
20260504171615 25 219 1.6 8.0 0.00 0.00 0.00 24 1011.6
20260504171043 24 284 0.0 9.7 0.00 0.00 0.00 27 1011.7
20260504170532 24 352 1.6 8.0 0.00 0.00 0.00 26 1011.7
20260504170141 24 252 1.6 9.7 0.00 0.00 0.00 26 1011.5
20260504160103 20 360 1.6 6.4 0.00 0.00 0.00 36 1011.9
20260504151018 16 360 0.0 4.8 0.00 0.00 0.00 44 1012.2
20260504150534 15 287 0.0 3.2 0.00 0.00 0.00 47 1012.2
20260504150214 15 263 1.6 4.8 0.00 0.00 0.00 48 1012.2
20260504141045 12 229 0.0 3.2 0.00 0.00 0.00 59 1012.3
20260504140534 12 229 1.6 4.8 0.00 0.00 0.00 57 1012.3
20260504140215 11 229 1.6 4.8 0.00 0.00 0.00 57 1012.3
20260504130525 10 241 3.2 6.4 0.00 0.00 0.00 62 1012.1
20260504130221 10 242 3.2 6.4 0.00 0.00 0.00 62 1012.2
20260504120212 10 246 3.2 6.4 0.00 0.00 0.00 62 1012.0
20260504110540 10 253 3.2 6.4 0.00 0.00 0.00 62 1011.9
20260504110119 10 250 1.6 6.4 0.00 0.00 0.00 61 1011.9
20260504100540 11 230 4.8 6.4 0.00 0.00 0.00 59 1012.0
20260504100110 11 246 4.8 6.4 0.00 0.00 0.00 59 1012.0
20260504090118 11 236 3.2 8.0 0.00 0.00 0.00 58 1011.8
20260504081708 12 233 4.8 6.4 0.00 0.00 0.00 56 1011.9
20260504081032 12 236 4.8 6.4 0.00 0.00 0.00 57 1011.9
20260504080550 12 247 3.2 6.4 0.00 0.00 0.00 57 1011.9
20260504080218 12 241 3.2 8.0 0.00 0.00 0.00 57 1011.9
20260504070128 13 235 3.2 6.4 0.00 0.00 0.00 53 1011.5
20260504060139 13 229 3.2 6.4 0.00 0.00 0.00 51 1011.5
20260504050529 15 242 4.8 8.0 0.00 0.00 0.00 47 1011.6
20260504050132 15 228 4.8 8.0 0.00 0.00 0.00 45 1011.7
20260504045537 15 225 4.8 11.3 0.00 0.00 0.00 44 1011.6
20260504045015 15 246 6.4 9.7 0.00 0.00 0.00 44 1011.5
20260504044608 15 229 6.4 9.7 0.00 0.00 0.00 45 1011.4
20260504044021 15 244 4.8 8.0 0.00 0.00 0.00 46 1011.4
20260504043522 15 243 4.8 8.0 0.00 0.00 0.00 46 1011.4
20260504043145 16 234 4.8 8.0 0.00 0.00 0.00 45 1011.4
20260504042532 16 225 4.8 8.0 0.00 0.00 0.00 44 1011.4
20260504042039 16 238 4.8 8.0 0.00 0.00 0.00 45 1011.2
20260504041539 16 236 3.2 6.4 0.00 0.00 0.00 45 1011.2
20260504041021 16 244 3.2 6.4 0.00 0.00 0.00 44 1011.2
20260504040531 16 248 3.2 6.4 0.00 0.00 0.00 43 1011.1
20260504040039 16 238 3.2 6.4 0.00 0.00 0.00 43 1011.2
20260504035518 17 234 3.2 8.0 0.00 0.00 0.00 42 1011.1
20260504035031 17 221 4.8 6.4 0.00 0.00 0.00 41 1011.1
20260504034535 17 243 3.2 6.4 0.00 0.00 0.00 41 1011.0
20260504034024 17 232 3.2 6.4 0.00 0.00 0.00 40 1010.9
20260504033530 18 237 3.2 8.0 0.00 0.00 0.00 37 1010.9
20260504033039 18 219 4.8 8.0 0.00 0.00 0.00 37 1010.8
20260504032515 19 225 4.8 8.0 0.00 0.00 0.00 36 1010.7
20260504032035 19 222 3.2 8.0 0.00 0.00 0.00 34 1010.7
20260504031629 19 229 1.6 6.4 0.00 0.00 0.00 34 1010.5
20260504031038 19 214 3.2 8.0 0.00 0.00 0.00 33 1010.4
20260504030539 19 244 1.6 8.0 0.00 0.00 0.00 35 1010.5
20260504030131 19 227 4.8 8.0 0.00 0.00 0.00 33 1010.3
20260504025522 18 225 4.8 6.4 0.00 0.00 0.00 37 1010.2
20260504025024 19 238 0.0 8.0 0.00 0.00 0.00 38 1010.1
20260504024558 19 221 4.8 8.0 0.00 0.00 0.00 37 1010.1
20260504024033 19 227 4.8 8.0 0.00 0.00 0.00 36 1010.1
20260504023533 20 231 3.2 9.7 0.00 0.00 0.00 37 1010.2
20260504023125 20 227 3.2 9.7 0.00 0.00 0.00 37 1010.1
20260504022533 20 235 4.8 8.0 0.00 0.00 0.00 36 1010.1
20260504022030 20 228 4.8 8.0 0.00 0.00 0.00 35 1010.1
20260504021606 20 239 3.2 8.0 0.00 0.00 0.00 35 1009.9
20260504021016 21 222 3.2 8.0 0.00 0.00 0.00 34 1010.0
20260504020527 21 228 3.2 8.0 0.00 0.00 0.00 34 1010.1
20260504020052 21 217 4.8 8.0 0.00 0.00 0.00 33 1010.2
20260504015523 21 215 4.8 9.7 0.00 0.00 0.00 33 1010.2
20260504015030 21 248 3.2 9.7 0.00 0.00 0.00 32 1010.3
20260504014627 21 248 3.2 11.3 0.00 0.00 0.00 30 1010.2
20260504014015 22 236 3.2 11.3 0.00 0.00 0.00 31 1010.3
20260504013515 22 234 3.2 11.3 0.00 0.00 0.00 29 1010.2
20260504013113 22 225 3.2 11.3 0.00 0.00 0.00 28 1010.3
20260504012533 23 254 3.2 6.4 0.00 0.00 0.00 28 1010.2
20260504012022 23 248 3.2 6.4 0.00 0.00 0.00 27 1010.5
20260504011600 24 232 1.6 6.4 0.00 0.00 0.00 27 1010.4
20260504011027 23 227 3.2 6.4 0.00 0.00 0.00 23 1010.5
20260504010524 24 235 1.6 6.4 0.00 0.00 0.00 28 1010.7
20260504010130 25 243 1.6 4.8 0.00 0.00 0.00 26 1010.7
20260504005533 25 257 1.6 6.4 0.00 0.00 0.00 26 1010.9
20260504005039 26 240 1.6 6.4 0.00 0.00 0.00 24 1010.9
20260504004628 26 340 0.0 4.8 0.00 0.00 0.00 21 1010.9
20260504004030 26 263 1.6 4.8 0.00 0.00 0.00 23 1010.9
20260504003533 27 304 1.6 4.8 0.00 0.00 0.00 18 1011.0
20260504003110 27 319 1.6 4.8 0.00 0.00 0.00 21 1011.1
20260504002515 27 360 1.6 6.4 0.00 0.00 0.00 18 1011.3
20260504002014 28 266 0.0 6.4 0.00 0.00 0.00 20 1011.3
20260504001612 28 257 1.6 8.0 0.00 0.00 0.00 22 1011.3
20260504001033 28 282 3.2 8.0 0.00 0.00 0.00 16 1011.4
20260504000515 28 302 1.6 9.7 0.00 0.00 0.00 18 1011.4
20260504000056 28 14 3.2 9.7 0.00 0.00 0.00 16 1011.4
20260503235547 28 344 3.2 8.0 0.00 0.00 0.00 17 1011.3
20260503235021 28 315 0.0 6.4 0.00 0.00 0.00 16 1011.4
20260503234608 28 229 1.6 12.9 0.00 0.00 0.00 16 1011.4
20260503234021 28 337 4.8 12.9 0.00 0.00 0.00 16 1011.4
20260503233535 28 346 1.6 11.3 0.00 0.00 0.00 16 1011.4
20260503233115 28 180 3.2 11.3 0.00 0.00 0.00 16 1011.5
20260503232537 28 45 1.6 6.4 0.00 0.00 0.00 15 1011.6
20260503232024 28 294 1.6 8.0 0.00 0.00 0.00 17 1011.6
20260503231612 29 44 1.6 8.0 0.00 0.00 0.00 17 1011.7
20260503231022 28 246 3.2 6.4 0.00 0.00 0.00 18 1011.8
20260503230529 28 9 1.6 6.4 0.00 0.00 0.00 15 1011.9
20260503230138 28 241 3.2 16.1 0.00 0.00 0.00 16 1011.9
20260503225525 28 18 4.8 16.1 0.00 0.00 0.00 17 1011.9
20260503225028 28 234 3.2 11.3 0.00 0.00 0.00 16 1012.0
20260503224558 28 95 3.2 11.3 0.00 0.00 0.00 15 1012.0
20260503224017 28 227 3.2 8.0 0.00 0.00 0.00 17 1012.2
20260503223533 28 334 3.2 9.7 0.00 0.00 0.00 15 1012.2
20260503223111 28 5 1.6 9.7 0.00 0.00 0.00 17 1012.4
20260503222524 28 278 0.0 8.0 0.00 0.00 0.00 17 1012.5
20260503222024 28 237 3.2 11.3 0.00 0.00 0.00 16 1012.6
20260503221630 28 286 1.6 17.7 0.00 0.00 0.00 16 1012.7
20260503221024 28 360 6.4 17.7 0.00 0.00 0.00 14 1012.8
20260503220524 28 300 3.2 8.0 0.00 0.00 0.00 17 1012.8
20260503220127 28 352 3.2 8.0 0.00 0.00 0.00 17 1012.9
20260503215531 28 348 4.8 9.7 0.00 0.00 0.00 15 1012.9
20260503215023 28 309 4.8 14.5 0.00 0.00 0.00 15 1013.0
20260503214637 28 23 4.8 14.5 0.00 0.00 0.00 15 1013.0
20260503214019 28 288 1.6 9.7 0.00 0.00 0.00 17 1013.1
20260503213519 28 345 1.6 12.9 0.00 0.00 0.00 17 1013.2
20260503213121 28 300 3.2 14.5 0.00 0.00 0.00 17 1013.3
20260503212543 28 33 4.8 14.5 0.00 0.00 0.00 16 1013.3
20260503212024 28 289 1.6 6.4 0.00 0.00 0.00 15 1013.3
20260503211554 28 323 3.2 6.4 0.00 0.00 0.00 17 1013.4
20260503211031 28 306 3.2 6.4 0.00 0.00 0.00 18 1013.4
20260503210525 28 35 1.6 6.4 0.00 0.00 0.00 19 1013.4
20260503210149 28 252 1.6 11.3 0.00 0.00 0.00 16 1013.4
20260503205541 27 339 3.2 8.0 0.00 0.00 0.00 18 1013.4
20260503205038 27 125 1.6 11.3 0.00 0.00 0.00 15 1013.4
20260503204623 27 227 3.2 11.3 0.00 0.00 0.00 17 1013.6
20260503204037 27 12 1.6 9.7 0.00 0.00 0.00 16 1013.6
20260503203536 28 5 3.2 8.0 0.00 0.00 0.00 16 1013.8
20260503203110 27 20 3.2 14.5 0.00 0.00 0.00 18 1013.7
20260503202515 27 296 3.2 14.5 0.00 0.00 0.00 16 1013.7
20260503202031 27 317 3.2 11.3 0.00 0.00 0.00 17 1014.0
20260503201656 27 85 0.0 6.4 0.00 0.00 0.00 16 1014.1
20260503201032 27 114 0.0 9.7 0.00 0.00 0.00 19 1014.1
20260503200516 27 334 6.4 9.7 0.00 0.00 0.00 18 1014.2
20260503200141 27 37 1.6 9.7 0.00 0.00 0.00 17 1014.2
20260503195523 27 360 4.8 9.7 0.00 0.00 0.00 17 1014.3
20260503195024 27 304 0.0 11.3 0.00 0.00 0.00 18 1014.6
20260503194631 27 88 1.6 11.3 0.00 0.00 0.00 19 1014.4
20260503194030 27 232 1.6 8.0 0.00 0.00 0.00 17 1014.6
20260503193613 27 190 3.2 12.9 0.00 0.00 0.00 18 1014.7
20260503193135 26 205 3.2 12.9 0.00 0.00 0.00 17 1014.7
20260503192531 26 334 1.6 8.0 0.00 0.00 0.00 19 1014.7
20260503192029 26 123 3.2 6.4 0.00 0.00 0.00 16 1014.7
20260503191638 26 360 3.2 9.7 0.00 0.00 0.00 17 1014.6
20260503191024 26 319 3.2 14.5 0.00 0.00 0.00 18 1015.0
20260503190530 26 330 1.6 14.5 0.00 0.00 0.00 19 1014.9
20260503190059 26 138 4.8 12.9 0.00 0.00 0.00 18 1015.0
20260503185541 26 230 3.2 6.4 0.00 0.00 0.00 18 1015.1
20260503185028 25 344 1.6 8.0 0.00 0.00 0.00 24 1015.0
20260503184645 26 87 3.2 8.0 0.00 0.00 0.00 23 1015.1
20260503184030 25 178 1.6 4.8 0.00 0.00 0.00 26 1015.1
20260503183522 25 11 1.6 4.8 0.00 0.00 0.00 30 1015.3
20260503183137 25 125 3.2 4.8 0.00 0.00 0.00 29 1015.5
20260503182521 25 32 1.6 4.8 0.00 0.00 0.00 32 1015.4
20260503182028 24 91 1.6 4.8 0.00 0.00 0.00 32 1015.2
20260503181653 24 96 1.6 4.8 0.00 0.00 0.00 33 1015.5
20260503181024 23 43 0.0 8.0 0.00 0.00 0.00 31 1015.4
20260503180526 23 130 3.2 8.0 0.00 0.00 0.00 33 1015.6
20260503180112 23 55 1.6 8.0 0.00 0.00 0.00 32 1015.8
20260503175533 22 101 3.2 6.4 0.00 0.00 0.00 35 1015.8
20260503175038 22 213 3.2 8.0 0.00 0.00 0.00 34 1015.8
20260503174653 22 150 1.6 6.4 0.00 0.00 0.00 34 1015.9
20260503174022 22 195 1.6 4.8 0.00 0.00 0.00 34 1016.0